カタログに戻る

OPS 9390

運用中軍事MEO
NORAD 6317·PAYLOAD·🇺🇸 United States

打ち上げ Dec 20, 1972 から Cape Canaveral Space Force Station

Loading…

次のパス (今後24時間)

TLE

最新Source: Space-Track

元期: Sep 14, 2026, 09:11 UTC

1 06317U 72101A   26257.38314517 -.00000412  00000-0  00000-0 0  9990
2 06317   8.9341 231.7691 1213018 117.2398 266.6477  1.00328390 26417

AllMySatでOPS 9390をリアルタイム追跡

Download on the App Store